Tracking 33679 objects as of 4-Apr-2026
HD Live streaming from Space Station
objects crossing your sky now
Track ARTEMIS 2 (INTEGRITY)

FORMOSAT7-4/COSMIC2-4

Track FORMOSAT7-4/COSMIC2-4 now!
10-day predictions


NORAD ID: 44350
Int'l Code: 2019-036M
Perigee: 584.9 km
Apogee: 586.8 km
Inclination: 24.0 °
Period: 96.2 minutes
Semi major axis: 6956 km
RCS: Unknown
Launch date: June 25, 2019
Source: Taiwan (Republic of China) (ROC)
Launch site: AIR FORCE EASTERN TEST RANGE (AFETR)
Your satellite tracking list
Your tracking list is empty




NASA's NSSDC Master Catalog

Two Line Element Set (TLE):
1 44350U 19036M   26093.71572711  .00005414  00000-0  44271-3 0  9991
2 44350  23.9982 236.4363 0001422  50.4975 309.5651 14.96178658372902
Source of the keplerian elements: AFSPC